Theta_e
285 285 284 284 283 283 282 283 283 284 283 283 283 283 282 281 281 281 281 280 280 280
285 284 284 284 284 284 284 284 283 283 283 282 282 282 281 280 280 280 280 280 280 279
285 285 284 284 283 284 284 284 283 283 282 282 281 281 280 280 280 280 280 280 279 279
284 284 284 284 284 284 283 283 283 283 282 281 281 280 280 280 279 279 279 279 279 279
284 284 283 283 283 283 282 282 282 282 281 281 281 280 280 279 280 279 279 279 279 278
283 283 283 283 283 282 282 281 281 281 281 280 280 280 280 280 279 279 279 279 279 278
283 283 283 283 283 282 281 280 279 278 278 279 279 280 280 280 279 279 279 280 279 279
283 283 283 282 282 281 281 280 279 278 277 277 278 279 277 279 278 278 279 280 280 279
282 282 282 281 281 281 280 280 280 278 276 276 280 284 284 281 279 280 280 279 277 278
282 281 281 281 281 280 279 279 278 277 277 276 277 284 284 283 281 280 276 274 275 276
281 280 280 280 279 278 277 275 275 276 275 275 278 282 281 279 274 273 271 272 272 272
280 279 278 277 275 274 273 273 274 274 273 274 277 280 279 276 273 272 271 271 271 271
277 276 274 274 273 272 271 270 270 270 270 270 272 278 277 275 273 271 270 270 271 274
273 273 272 272 271 270 269 268 267 267 267 268 269 273 275 275 272 271 270 270 268 269
Wind_Speed
8 7 6 7 6 5 5 5 7 6 6 7 6 6 6 4 4 5 5 7 5 4
8 9 8 9 7 6 6 6 7 7 7 6 6 6 6 4 4 5 4 5 5 4
9 10 8 9 9 8 8 9 8 7 7 7 6 6 7 5 4 5 3 3 5 3
10 10 8 9 8 8 8 10 8 8 7 7 7 6 6 6 5 5 4 3 4 3
11 10 8 10 8 8 9 8 8 8 7 7 7 7 6 6 6 5 5 4 4 2
12 12 10 10 9 8 9 8 8 8 8 7 7 7 6 6 5 4 4 3 3 1
14 13 11 10 10 9 9 9 7 7 6 6 6 7 6 6 5 4 4 4 4 4
13 13 11 10 10 9 9 8 8 8 7 6 6 4 5 5 5 5 4 4 5 5
13 12 12 11 12 11 9 9 9 8 8 7 4 10 10 7 5 4 3 3 5 4
13 13 12 12 12 12 11 11 10 9 8 7 5 11 9 9 4 5 6 5 4 4
13 13 13 13 12 12 12 11 10 10 9 8 6 14 12 13 7 6 5 5 5 4
14 14 14 14 14 12 13 11 11 10 9 10 9 14 12 9 5 5 4 4 4 3
13 14 15 14 14 12 13 12 10 12 10 10 8 14 13 8 4 4 2 2 1 4
13 15 15 15 12 13 13 13 12 12 9 10 8 9 12 12 4 2 3 3 2 2
Wind_Direction
162 149 148 152 149 150 148 149 152 148 136 126 126 120 113 108 109 105 102 96 97 103
160 151 155 157 152 153 150 147 151 149 135 136 134 130 119 113 106 110 113 112 98 109
164 156 154 156 155 159 153 143 146 149 146 143 137 129 116 113 118 114 106 110 108 94
168 162 157 160 157 157 141 145 148 153 148 148 143 138 126 133 135 130 123 106 117 119
164 161 156 159 157 149 145 144 150 149 146 148 146 144 140 145 145 148 143 156 131 151
166 166 165 160 155 146 143 146 146 147 151 151 149 145 144 147 151 146 135 130 130 103
168 168 164 156 152 144 143 141 140 139 137 136 135 137 140 140 133 120 112 102 89 69
163 161 154 149 144 137 134 131 125 118 109 107 114 123 125 122 112 116 113 110 107 78
159 154 153 148 143 137 132 127 122 118 117 111 108 145 146 131 127 122 120 91 59 65
155 152 148 142 138 136 131 123 118 118 116 112 113 130 132 141 86 88 80 76 65 59
149 142 137 133 128 115 113 112 114 110 107 105 105 107 108 95 83 85 80 80 74 67
138 132 128 119 117 114 109 104 102 98 94 97 99 104 95 91 87 90 101 103 103 101
111 113 111 113 109 106 103 104 100 89 76 70 85 94 93 85 80 70 57 65 56 331
92 100 104 104 105 108 106 101 95 90 76 69 55 79 76 80 60 61 50 24 349 6